Tiempo atmosférico en la estación meteorológica de Ramales de la Victoria, Cantabria (80 m.)



Fecha
DESCASC
Temp. máxima en grados centígrados (hora)
DESCASC
Temp. mínima en grados centígrados (hora)
DESCASC
Temp. media en grados centígrados
DESCASC
Racha de viento máxima en m/sg (hora)
DESCASC
Velocidad máxima media en intervalos de 10 minutos(hora)
DESCASC
Precipitaciones diarias en mm
DESCASC
Precipitaciones de 00:00 a 06:00 en mm
DESCASC
Precipitaciones de 06:00 a 12:00 en mm
DESCASC
Precipitaciones de 12:00 a 18:00 en mm
DESCASC
Precipitaciones de 18:00 a 24:00 en mm
DESCASC
13-01-2021 12.7 (13:20) 1 (23:20) 6.8 2.22 (13:50) 1.11 (12:10) 0 0 0 0 0
12-01-2021 12.4 (15:10) 3.2 (03:10) 7.8 4.44 (14:00) 1.94 (14:10) 0 0 0 0 0
11-01-2021 7.9 (15:20) 2.1 (08:40) 5 4.44 (12:30) 2.22 (12:30) 0 0 0 0 0
10-01-2021 5.8 (15:40) 1.4 (00:00) 3.6 7.22 (14:40) 3.33 (14:40) 0 0 0 0 0
09-01-2021 3.9 (13:50) 0.9 (00:00) 2.4 3.89 (16:50) 2.22 (16:50) 6.4 0 0 3.2 3.2
08-01-2021 7.4 (13:50) -1.3 (-00:0) 3.1 3.89 (15:10) 1.67 (15:20) 0 0 0 0 0
07-01-2021 -- (--) -- (--) -- -- (--) -- (--) -- 0 0 -- --
06-01-2021 7.5 (15:00) 0.2 (00:00) 3.9 3.89 (15:00) 1.67 (14:20) 0.2 0.2 0 0 0
05-01-2021 5.5 (15:30) 1.5 (00:00) 3.5 3.33 (03:20) 1.11 (04:00) 14.2 9.8 3.8 0.6 0
04-01-2021 4.1 (07:10) 1.5 (00:00) 2.8 6.67 (00:50) 3.33 (15:20) 21.4 4.2 7.4 7.8 2
03-01-2021 5.9 (15:20) 0.9 (00:00) 3.4 5.28 (14:50) 1.94 (12:20) 33.2 2.4 17.6 11 2.2
02-01-2021 7.2 (15:30) 2.4 (00:00) 4.8 11.11 (05:00) 5.28 (04:40) 26.2 16.6 7.4 0.8 1.4
01-01-2021 5.7 (12:10) 1.2 (00:00) 3.4 10.28 (14:30) 4.44 (14:30) 37 11.2 10.6 8.6 6.6
31-12-2020 9.6 (13:40) 2.5 (00:00) 6.1 8.61 (12:00) 3.89 (12:00) 18 0 0.2 10 7.8
30-12-2020 8.2 (14:20) 3.5 (00:00) 5.8 8.89 (06:50) 3.89 (04:40) 17.8 8.6 7.8 1.4 0
29-12-2020 9.6 (14:30) 4.2 (00:00) 6.9 9.17 (15:00) 3.61 (14:50) 24.6 1.8 4.4 7.4 11
28-12-2020 11.7 (13:50) 5.1 (00:00) 8.4 16.67 (18:50) 6.94 (11:40) 27.4 13.8 4.8 4.6 4.2
27-12-2020 13.3 (16:40) 1.8 (00:00) 7.6 24.17 (19:00) 11.39 (19:00) 27.2 0 0 0 27.2
26-12-2020 8.1 (13:40) 2.7 (00:00) 5.4 4.17 (06:00) 2.22 (06:10) 2.6 1.2 0.4 1 0
25-12-2020 9.1 (14:20) 4 (00:00) 6.6 8.89 (04:30) 3.33 (07:40) 7 1.6 4.4 0 1
24-12-2020 11.4 (14:20) 5.7 (00:00) 8.5 8.61 (14:30) 3.33 (12:50) 18.6 0.2 0 1 17.4
23-12-2020 20.7 (00:00) 8.5 (00:00) 14.6 15.83 (00:10) 6.67 (09:10) 4 0 0 1.4 2.6
22-12-2020 21.3 (14:20) 6.4 (00:00) 13.8 17.5 (21:20) 6.67 (21:30) 0.2 0 0.2 0 0
21-12-2020 18 (14:20) 8.4 (00:00) 13.2 9.17 (02:20) 3.89 (02:20) 2.2 1.2 1 0 0
20-12-2020 13.9 (21:50) 3.3 (00:00) 8.6 8.61 (23:30) 3.61 (21:50) 0.2 0.2 0 0 0
19-12-2020 15.9 (12:30) 6.5 (00:00) 11.2 22.22 (02:10) 8.61 (01:40) 4.8 0.8 0 0 4
18-12-2020 16 (15:40) 1.6 (00:00) 8.8 22.5 (22:30) 9.44 (20:30) 0 0 0 0 0

Gráficas

Temp. máximas Temp. mínimas Temp. medias Precipitaciones Rachas de viento máximas Velocidades máximas media en intervalos de 10 minutos

Datos horarios

Fecha y hora oficial Temperatura (ºC) Velocidad del viento (km/h) Dirección del viento Racha (km/h) Dirección de racha Precipitación (mm) Presión (hPa) Tendencia (hPa) Humedad (%)
2021-01-16 23:00:00 1.8 3 Oeste 5 Oeste 0 -- -- 98
2021-01-16 22:00:00 2.4 2 Oeste 4 Oeste 0 -- -- 97
2021-01-16 21:00:00 3.3 0 Calma 4 Sur 0 -- -- 95
2021-01-16 20:00:00 4.7 0 Calma 4 Sur 0 -- -- 94
2021-01-16 19:00:00 5.6 2 Sudoeste 6 Sudoeste 0 -- -- 95
2021-01-16 18:00:00 5.9 0 Calma 6 Oeste 0 -- -- 92
2021-01-16 17:00:00 6.8 0 Calma 8 Oeste 0 -- -- 91
2021-01-16 16:00:00 8.5 3 Sudoeste 8 Oeste 0 -- -- 86
2021-01-16 15:00:00 9.1 3 Sudoeste 5 Sudoeste 0 -- -- 85
2021-01-16 14:00:00 9.2 0 Calma 4 Sudoeste 0 -- -- 84
2021-01-16 13:00:00 7 0 Calma 4 Oeste 0 -- -- 92
2021-01-16 12:00:00 4.6 2 Sudoeste 3 Oeste 0 -- -- 100
2021-01-16 11:00:00 0.9 2 Sudoeste 4 Oeste 0 -- -- 100
2021-01-16 10:00:00 -0.9 2 Oeste 4 Oeste 0 -- -- 100
2021-01-16 09:00:00 -1.1 0 Calma 4 Oeste 0 -- -- 100
2021-01-16 08:00:00 -0.8 0 Calma 4 Oeste 0 -- -- 99
2021-01-16 07:00:00 -0.5 0 Calma 5 Oeste 0 -- -- 99
2021-01-16 06:00:00 -0.4 0 Calma 6 Oeste 0 -- -- 99
2021-01-16 05:00:00 -0.1 0 Calma 5 Oeste 0 -- -- 99
2021-01-16 04:00:00 0.5 3 Oeste 5 Oeste 0 -- -- 99
2021-01-16 03:00:00 0.9 2 Oeste 4 Oeste 0 -- -- 99
2021-01-16 02:00:00 1.3 0 Calma 5 Oeste 0 -- -- 98
2021-01-16 01:00:00 1.8 3 Oeste 4 Oeste 0 -- -- 98
2021-01-16 00:00:00 2.5 0 Calma 5 Oeste 0 -- -- 99
2021-01-15 23:00:00 2.9 2 Oeste 4 Oeste 0 -- -- 98
2021-01-15 22:00:00 3.7 2 Oeste 3 Oeste 0 -- -- 97
2021-01-15 21:00:00 4.6 0 Calma 3 Sudoeste 0 -- -- 96
2021-01-15 20:00:00 5.7 0 Calma 2 Sur 0 -- -- 95
2021-01-15 19:00:00 7 0 Calma 4 Sur 0 -- -- 94
2021-01-15 18:00:00 8 0 Calma 4 Oeste 0 -- -- 91
2021-01-15 17:00:00 9.7 4 Oeste 11 Oeste 0 -- -- 83
2021-01-15 16:00:00 10.4 4 Oeste 14 Oeste 0 -- -- 78
2021-01-15 15:00:00 10.5 4 Oeste 21 Noroeste 0 -- -- 80
2021-01-15 14:00:00 11.8 6 Oeste 17 Sudoeste 0 -- -- 71
2021-01-15 13:00:00 10.8 4 Noroeste 14 Noroeste 0 -- -- 78
2021-01-15 12:00:00 9.8 0 Calma 6 Norte 0 -- -- 99
2021-01-15 11:00:00 7.4 0 Calma 4 Sur 0 -- -- 100
2021-01-15 10:00:00 5.8 0 Calma 3 Este 0 -- -- 99
2021-01-15 09:00:00 5.9 0 Calma 5 Este 0.2 -- -- 99
2021-01-15 08:00:00 6.4 0 Calma 4 Sudeste 0.4 -- -- 99
2021-01-15 07:00:00 6.5 0 Calma 6 Sur 0.6 -- -- 99
2021-01-15 06:00:00 6 3 Sudeste 8 Sur 0 -- -- 99
2021-01-15 05:00:00 7.2 0 Calma 6 Nordeste 0.2 -- -- 99
2021-01-15 04:00:00 6.9 2 Sur 7 Sudeste 0 -- -- 99
2021-01-15 03:00:00 6.7 0 Calma 4 Nordeste 0 -- -- 98
2021-01-15 02:00:00 7.6 0 Calma 3 Sudeste 0 -- -- 98
2021-01-15 01:00:00 8.1 0 Calma 4 Sudoeste 0 -- -- 98
2021-01-15 00:00:00 8.6 0 Calma 3 Sur 0 -- -- 97
2021-01-14 23:00:00 9.2 2 Oeste 12 Oeste 0.2 -- -- 96
2021-01-14 22:00:00 9.6 4 Oeste 11 Sudoeste 0.4 -- -- 97
2021-01-14 21:00:00 9.6 3 Sudoeste 12 Oeste 1.4 -- -- 98
2021-01-14 20:00:00 9.5 2 Sudeste 12 Sudeste 1 -- -- 98
2021-01-14 19:00:00 9.1 4 Sudeste 8 Sudeste 0.8 -- -- 98
2021-01-14 18:00:00 8.5 3 Sudeste 11 Sudeste 0.6 -- -- 95
2021-01-14 17:00:00 9.4 3 Sur 10 Oeste 0.2 -- -- 94
2021-01-14 16:00:00 9.8 6 Oeste 12 Oeste 0 -- -- 89
2021-01-14 15:00:00 9.4 3 Sur 4 Oeste 0 -- -- 86
2021-01-14 14:00:00 9.6 0 Calma 4 Oeste 0 -- -- 85
2021-01-14 13:00:00 10 3 Oeste 8 Oeste 0 -- -- 69
2021-01-14 12:00:00 7.2 3 Oeste 8 Oeste 0 -- -- 85
2021-01-14 11:00:00 4.2 3 Oeste 7 Oeste 0 -- -- 100
2021-01-14 10:00:00 2.2 0 Calma 3 Nordeste 0 -- -- 100
2021-01-14 09:00:00 1 0 Calma 3 Oeste 0 -- -- 99
2021-01-14 08:00:00 0.7 0 Calma 3 Oeste 0 -- -- 99
2021-01-14 07:00:00 0.5 2 Oeste 4 Oeste 0 -- -- 99
2021-01-14 06:00:00 0.3 0 Calma 5 Sudoeste 0 -- -- 99
2021-01-14 05:00:00 0.4 0 Calma 5 Oeste 0 -- -- 99
2021-01-14 04:00:00 0 2 Oeste 4 Oeste 0 -- -- 99
2021-01-14 03:00:00 -0.5 0 Calma 3 Oeste 0 -- -- 98
2021-01-14 02:00:00 -0.1 3 Oeste 4 Oeste 0 -- -- 98
2021-01-14 01:00:00 0.5 0 Calma 5 Oeste 0 -- -- 98
2021-01-14 00:00:00 1.2 3 Oeste 6 Oeste 0 -- -- 98
2021-01-13 23:00:00 1.1 0 Calma 5 Oeste 0 -- -- 97
2021-01-13 22:00:00 1.3 0 Calma 3 Oeste 0 -- -- 97
2021-01-13 21:00:00 1.9 0 Calma 4 Oeste 0 -- -- 96
2021-01-13 20:00:00 2.9 0 Calma 2 Oeste 0 -- -- 95
2021-01-13 19:00:00 4 0 Calma 3 Sur 0 -- -- 92
2021-01-13 18:00:00 5.6 0 Calma 4 Sur 0 -- -- 89
2021-01-13 17:00:00 6.9 0 Calma 5 Oeste 0 -- -- 86
2021-01-13 16:00:00 8.7 2 Sudoeste 4 Oeste 0 -- -- 81
2021-01-13 15:00:00 11.3 2 Sudoeste 5 Sudoeste 0 -- -- 72
2021-01-13 14:00:00 12.6 4 Sudoeste 8 Sudoeste 0 -- -- 62
2021-01-13 13:00:00 12.1 0 Calma 6 Oeste 0 -- -- 61
2021-01-13 12:00:00 9.2 4 Oeste 5 Sudoeste 0 -- -- 78
2021-01-13 11:00:00 6 0 Calma 2 Oeste 0 -- -- 94
2021-01-13 10:00:00 5.1 0 Calma 4 Oeste 0 -- -- 97
2021-01-13 09:00:00 4.6 0 Calma 4 Sudeste 0 -- -- 97
2021-01-13 08:00:00 4.5 0 Calma 3 Norte 0 -- -- 97
2021-01-13 07:00:00 4.4 0 Calma 3 Oeste 0 -- -- 97
2021-01-13 06:00:00 4.2 0 Calma 4 Oeste 0 -- -- 97
2021-01-13 05:00:00 4 0 Calma 3 Sur 0 -- -- 97
2021-01-13 04:00:00 3.9 0 Calma 3 Sur 0 -- -- 96
2021-01-13 03:00:00 3.8 0 Calma 3 Oeste 0 -- -- 96
2021-01-13 02:00:00 3.7 0 Calma 4 Sur 0 -- -- 94
2021-01-13 01:00:00 4.3 0 Calma 3 Oeste 0 -- -- 93
2021-01-13 00:00:00 4.5 0 Calma 5 Oeste 0 -- -- 92
2021-01-12 23:00:00 4.7 0 Calma 4 Sur 0 -- -- 91
2021-01-12 22:00:00 4.9 0 Calma 4 Sur 0 -- -- 91
2021-01-12 21:00:00 4.8 0 Calma 3 Sudoeste 0 -- -- 91
2021-01-12 20:00:00 5.3 0 Calma 2 Oeste 0 -- -- 89
2021-01-12 19:00:00 6.6 0 Calma 6 Oeste 0 -- -- 85
2021-01-12 18:00:00 8.4 0 Calma 8 Noroeste 0 -- -- 76
2021-01-12 17:00:00 10.3 2 Noroeste 14 Sudoeste 0 -- -- 68
2021-01-12 16:00:00 11.5 3 Oeste 14 Sudoeste 0 -- -- 60
2021-01-12 15:00:00 12.1 5 Sudoeste 14 Oeste 0 -- -- 59
2021-01-12 14:00:00 11 4 Sur 16 Sudoeste 0 -- -- 65
2021-01-12 13:00:00 8.7 0 Calma 3 Sudeste 0 -- -- 74
2021-01-12 12:00:00 6.8 3 Noroeste 6 Oeste 0 -- -- 83
2021-01-12 11:00:00 5 0 Calma 3 Oeste 0 -- -- 93
2021-01-12 10:00:00 4.1 0 Calma 3 Sudeste 0 -- -- 96
2021-01-12 09:00:00 3.7 0 Calma 3 Noroeste 0 -- -- 96
2021-01-12 08:00:00 3.7 0 Calma 4 Noroeste 0 -- -- 95
2021-01-12 07:00:00 3.6 0 Calma 4 Noroeste 0 -- -- 95
2021-01-12 06:00:00 3.5 0 Calma 3 Noroeste 0 -- -- 96
2021-01-12 05:00:00 3.4 0 Calma 4 Oeste 0 -- -- 95
2021-01-12 04:00:00 3.3 0 Calma 5 Oeste 0 -- -- 96
2021-01-12 03:00:00 3.3 0 Calma 5 Sudoeste 0 -- -- 95
2021-01-12 02:00:00 3.3 0 Calma 5 Oeste 0 -- -- 95
2021-01-12 01:00:00 3.4 0 Calma 3 Sudoeste 0 -- -- 95
2021-01-12 00:00:00 3.5 2 Oeste 4 Oeste 0 -- -- 95
2021-01-11 23:00:00 3.4 0 Calma 3 Oeste 0 -- -- 95
2021-01-11 22:00:00 3.4 2 Sudoeste 4 Sur 0 -- -- 93
2021-01-11 21:00:00 3.7 0 Calma 3 Sudoeste 0 -- -- 93
2021-01-11 20:00:00 4.2 0 Calma 3 Sur 0 -- -- 90
2021-01-11 19:00:00 4.4 2 Sudoeste 4 Sudoeste 0 -- -- 90
2021-01-11 18:00:00 5.3 2 Sudoeste 4 Oeste 0 -- -- 83
2021-01-11 17:00:00 7.1 3 Oeste 9 Noroeste 0 -- -- 79
2021-01-11 16:00:00 7.8 3 Norte 9 Nordeste 0 -- -- 68
2021-01-11 15:00:00 7.8 3 Noroeste 11 Noroeste 0 -- -- 66
2021-01-11 14:00:00 7.7 5 Noroeste 12 Noroeste 0 -- -- 70
2021-01-11 13:00:00 6.6 4 Norte 16 Oeste 0 -- -- 77
2021-01-11 12:00:00 6.4 5 Noroeste 10 Oeste 0 -- -- 79
2021-01-11 11:00:00 4.8 4 Noroeste 10 Noroeste 0 -- -- 86
2021-01-11 10:00:00 3 0 Calma 5 Este 0 -- -- 96
2021-01-11 09:00:00 2.2 3 Sudeste 5 Este 0 -- -- 95
2021-01-11 08:00:00 2.6 0 Calma 6 Oeste 0 -- -- 93
2021-01-11 07:00:00 2.8 2 Sur 7 Sudoeste 0 -- -- 93
2021-01-11 06:00:00 3.5 0 Calma 6 Oeste 0 -- -- 90
2021-01-11 05:00:00 4 5 Oeste 11 Oeste 0 -- -- 86
2021-01-11 04:00:00 4.7 4 Noroeste 11 Noroeste 0 -- -- 86
2021-01-11 03:00:00 4.6 5 Oeste 9 Oeste 0 -- -- 87
2021-01-11 02:00:00 4.7 6 Oeste 10 Noroeste 0 -- -- 83
2021-01-11 01:00:00 4.7 4 Oeste 9 Noroeste 0 -- -- 84
2021-01-11 00:00:00 5.4 6 Oeste 10 Oeste 0 -- -- 83
2021-01-10 23:00:00 5.4 5 Noroeste 10 Norte 0 -- -- 80
2021-01-10 22:00:00 5.4 4 Noroeste 10 Norte 0 -- -- 81
2021-01-10 21:00:00 5.3 4 Noroeste 11 Noroeste 0 -- -- 82
2021-01-10 20:00:00 5.5 4 Noroeste 12 Noroeste 0 -- -- 79
2021-01-10 19:00:00 5.4 4 Noroeste 14 Noroeste 0 -- -- 80
2021-01-10 18:00:00 5.5 6 Noroeste 16 Oeste 0 -- -- 77
2021-01-10 17:00:00 5.6 8 Noroeste 20 Noroeste 0 -- -- 75
2021-01-10 16:00:00 5.7 8 Noroeste 26 Oeste 0 -- -- 71
2021-01-10 15:00:00 5.7 10 Noroeste 26 Oeste 0 -- -- 72
2021-01-10 14:00:00 5.7 7 Noroeste 21 Oeste 0 -- -- 74
2021-01-10 13:00:00 5.6 7 Noroeste 21 Noroeste 0 -- -- 80
2021-01-10 12:00:00 5.4 5 Noroeste 14 Norte 0 -- -- 87
2021-01-10 11:00:00 4.6 6 Noroeste 10 Noroeste 0 -- -- 90
2021-01-10 10:00:00 4.1 5 Noroeste 15 Noroeste 0 -- -- 92
2021-01-10 09:00:00 3.7 6 Noroeste 14 Norte 0 -- -- 95
2021-01-10 08:00:00 2.8 4 Noroeste 12 Noroeste 0 -- -- 100
2021-01-10 07:00:00 2 0 Calma 5 Este 0 -- -- 99
2021-01-10 06:00:00 2 0 Calma 4 Este 0 -- -- 99
2021-01-10 05:00:00 2 0 Calma 4 Sudeste 0 -- -- 99
2021-01-10 04:00:00 1.8 0 Calma 4 Sudoeste 0 -- -- 99
2021-01-10 03:00:00 1.7 0 Calma 3 Sudoeste 0 -- -- 99
2021-01-10 02:00:00 1.6 0 Calma 3 Oeste 0 -- -- 98
2021-01-10 01:00:00 1.5 0 Calma 4 Noroeste 0 -- -- 98
2021-01-10 00:00:00 1.4 2 Sudoeste 4 Oeste 0 -- -- 98
2021-01-09 23:00:00 1.3 0 Calma 3 Sudeste 0.8 -- -- 98
2021-01-09 22:00:00 1.4 0 Calma 2 Norte 0.4 -- -- 98
2021-01-09 21:00:00 1.4 0 Calma 4 Sudeste 0.6 -- -- 97
2021-01-09 20:00:00 1.6 0 Calma 4 Sudeste 0.6 -- -- 96
2021-01-09 19:00:00 2.1 0 Calma 6 Oeste 0.8 -- -- 95
2021-01-09 18:00:00 2.5 0 Calma 6 Oeste 0.8 -- -- 95
2021-01-09 17:00:00 2.8 3 Oeste 14 Sudoeste 0.8 -- -- 95
2021-01-09 16:00:00 3 4 Noroeste 9 Oeste 0.8 -- -- 95
2021-01-09 15:00:00 3.4 5 Noroeste 10 Oeste 0.6 -- -- 92
2021-01-09 14:00:00 3.9 3 Oeste 6 Noroeste 0.2 -- -- 94
2021-01-09 13:00:00 3.4 0 Calma 2 Noroeste 0 -- -- 92
2021-01-09 12:00:00 2.6 0 Calma 2 Sur 0 -- -- 95
2021-01-09 11:00:00 2.2 0 Calma 4 Oeste 0 -- -- 97
2021-01-09 10:00:00 1.7 0 Calma 2 Sudeste 0 -- -- 98
2021-01-09 09:00:00 1.4 0 Calma 3 Oeste 0 -- -- 97
2021-01-09 08:00:00 1.5 0 Calma 5 Sudoeste 0 -- -- 98
2021-01-09 07:00:00 1.3 0 Calma 3 Sudoeste 0 -- -- 98
2021-01-09 06:00:00 1.3 0 Calma 2 Oeste 0 -- -- 98
2021-01-09 05:00:00 1.2 0 Calma 2 Sudoeste 0 -- -- 98
2021-01-09 04:00:00 1.1 0 Calma 2 Sudoeste 0 -- -- 97
2021-01-09 03:00:00 1.1 0 Calma 4 Oeste 0 -- -- 97
2021-01-09 02:00:00 1.1 2 Oeste 3 Oeste 0 -- -- 97
2021-01-09 01:00:00 1.1 0 Calma 3 Sudoeste 0 -- -- 97
2021-01-09 00:00:00 0.9 0 Calma 3 Oeste 0 -- -- 97
2021-01-08 23:00:00 0.8 0 Calma 2 Oeste 0 -- -- 97
2021-01-08 22:00:00 0.8 0 Calma 3 Noroeste 0 -- -- 96
2021-01-08 21:00:00 0.9 0 Calma 3 Oeste 0 -- -- 94
2021-01-08 20:00:00 1.4 0 Calma 3 Sur 0 -- -- 92
2021-01-08 19:00:00 2.1 0 Calma 4 Oeste 0 -- -- 92
2021-01-08 18:00:00 2.7 2 Sudoeste 6 Sur 0 -- -- 87
2021-01-08 17:00:00 4.3 0 Calma 10 Nordeste 0 -- -- 77
2021-01-08 16:00:00 5.6 3 Este 14 Nordeste 0 -- -- 66
2021-01-08 15:00:00 6.8 4 Norte 12 Norte 0 -- -- 64
2021-01-08 14:00:00 7.3 5 Oeste 11 Oeste 0 -- -- 62
2021-01-08 13:00:00 4.8 0 Calma 4 Sudoeste 0 -- -- 88
2021-01-08 12:00:00 1.6 0 Calma 4 Oeste 0 -- -- 100
2021-01-08 11:00:00 -0.6 0 Calma 6 Oeste 0 -- -- 100
2021-01-08 10:00:00 -1.3 0 Calma 5 Sudoeste 0 -- -- 99
2021-01-08 09:00:00 -1.2 0 Calma 4 Sudoeste 0 -- -- 98
2021-01-08 08:00:00 -0.7 0 Calma 5 Oeste 0 -- -- 98
2021-01-08 07:00:00 -0.2 0 Calma 5 Oeste 0 -- -- 98
2021-01-08 06:00:00 0.2 0 Calma 5 Sudoeste 0 -- -- 98
2021-01-08 05:00:00 0.1 0 Calma 5 Sur 0 -- -- 98
2021-01-08 04:00:00 0.4 2 Oeste 4 Sur 0 -- -- 96
2021-01-08 03:00:00 1.8 0 Calma 4 Oeste 0 -- -- 97
2021-01-08 02:00:00 2 2 Sur 7 Oeste 0 -- -- 97
2021-01-08 01:00:00 1.9 2 Sudoeste 4 Oeste 0 -- -- 97
2021-01-08 00:00:00 1.9 2 Sudoeste 4 Oeste 0 -- -- 97
2021-01-07 23:00:00 1.9 0 Calma 5 Oeste 0 -- -- 96
2021-01-07 22:00:00 2 0 Calma 2 Sudeste 0 -- -- 96
2021-01-07 21:00:00 2.1 0 Calma 8 Oeste 0 -- -- 96
2021-01-07 20:00:00 1.8 2 Sur 4 Este 0 -- -- 96
2021-01-07 19:00:00 2.2 0 Calma -- -- -- -- -- 95
2021-01-07 18:00:00 -- -- -- -- -- -- -- -- --
2021-01-07 17:00:00 2.5 3 Sudoeste 8 Sudoeste 0 -- -- 93
2021-01-07 16:00:00 2.8 3 Sudoeste 10 Sur 0 -- -- 92
2021-01-07 15:00:00 4.4 3 Sudoeste 5 Sudoeste 0 -- -- 86
2021-01-07 14:00:00 4.9 2 Sudoeste 6 Sur 0 -- -- 89
2021-01-07 13:00:00 3.8 2 Sudoeste 5 Sudoeste 0 -- -- 91
2021-01-07 12:00:00 1.9 0 Calma 3 Oeste 0 -- -- 99
2021-01-07 11:00:00 -1.1 0 Calma 4 Oeste 0 -- -- 100
2021-01-07 10:00:00 -2.6 0 Calma 4 Oeste 0 -- -- 99
2021-01-07 09:00:00 -2.6 0 Calma 4 Sudoeste 0 -- -- 99
2021-01-07 08:00:00 -2.5 3 Oeste 5 Oeste 0 -- -- 99
2021-01-07 07:00:00 -2.4 0 Calma 4 Oeste 0 -- -- 99
2021-01-07 06:00:00 -2.2 0 Calma 4 Oeste 0 -- -- 99
2021-01-07 05:00:00 -1.7 2 Noroeste 6 Oeste 0 -- -- 99
2021-01-07 04:00:00 -1.6 0 Calma 5 Oeste 0 -- -- 99
2021-01-07 03:00:00 -0.9 2 Noroeste 5 Oeste 0 -- -- 99
2021-01-07 02:00:00 -0.7 2 Oeste 9 Oeste 0 -- -- 99
2021-01-07 01:00:00 -0.5 0 Calma 6 Oeste 0 -- -- 98
2021-01-07 00:00:00 0.2 3 Oeste 5 Oeste 0 -- -- 98
2021-01-06 23:00:00 0.7 0 Calma 4 Sudoeste 0 -- -- 97
2021-01-06 22:00:00 1.6 0 Calma 5 Sudoeste 0 -- -- 97
2021-01-06 21:00:00 3.1 0 Calma 4 Oeste 0 -- -- 97
2021-01-06 20:00:00 3.6 0 Calma 4 Oeste 0 -- -- 97
2021-01-06 19:00:00 3.7 0 Calma 4 Oeste 0 -- -- 97
2021-01-06 18:00:00 3.7 2 Sudoeste 6 Oeste 0 -- -- 96
2021-01-06 17:00:00 4.1 0 Calma 4 Oeste 0 -- -- 94
2021-01-06 16:00:00 4.8 3 Sudoeste 5 Sudoeste 0 -- -- 92
2021-01-06 15:00:00 7.5 6 Oeste 14 Oeste 0 -- -- 74
2021-01-06 14:00:00 7.2 5 Noroeste 10 Oeste 0 -- -- 76
2021-01-06 13:00:00 6.6 2 Este 5 Nordeste 0 -- -- 85
2021-01-06 12:00:00 4.3 3 Oeste 4 Oeste 0 -- -- 95
2021-01-06 11:00:00 3 0 Calma 5 Oeste 0 -- -- 98
2021-01-06 10:00:00 2.2 2 Noroeste 4 Noroeste 0 -- -- 99
2021-01-06 09:00:00 1.8 0 Calma 5 Oeste 0 -- -- 98
2021-01-06 08:00:00 2 0 Calma 5 Oeste 0 -- -- 98
2021-01-06 07:00:00 2 2 Oeste 5 Oeste 0 -- -- 98
2021-01-06 06:00:00 2.2 2 Noroeste 4 Noroeste 0 -- -- 98
2021-01-06 05:00:00 2.3 0 Calma 4 Oeste 0 -- -- 99
2021-01-06 04:00:00 2.4 2 Sudoeste 4 Oeste 0 -- -- 99
2021-01-06 03:00:00 2.4 0 Calma 4 Este 0 -- -- 99
2021-01-06 02:00:00 2.4 2 Sudoeste 4 Nordeste 0 -- -- 99
2021-01-06 01:00:00 2.2 0 Calma 3 Sur 0.2 -- -- 99
2021-01-06 00:00:00 1.8 0 Calma 6 Oeste 0 -- -- 98
2021-01-05 23:00:00 2.2 3 Sudeste 5 Sur 0 -- -- 97
2021-01-05 22:00:00 3.6 0 Calma 5 Oeste 0 -- -- 98
2021-01-05 21:00:00 3.9 0 Calma 4 Sudoeste 0 -- -- 97
2021-01-05 20:00:00 4.1 0 Calma 8 Oeste 0 -- -- 97
2021-01-05 19:00:00 4.4 0 Calma 3 Oeste 0 -- -- 97
2021-01-05 18:00:00 4.6 0 Calma 4 Sur 0 -- -- 96
2021-01-05 17:00:00 5.1 0 Calma 3 Sudoeste 0.4 -- -- 93
2021-01-05 16:00:00 5.4 0 Calma 8 Sudeste 0 -- -- 92
2021-01-05 15:00:00 5.3 0 Calma 4 Oeste 0 -- -- 90
2021-01-05 14:00:00 4.9 0 Calma 4 Oeste 0 -- -- 93
2021-01-05 13:00:00 4.1 0 Calma 4 Oeste 0.2 -- -- 93
2021-01-05 12:00:00 3.6 0 Calma 4 Nordeste 0.2 -- -- 96
2021-01-05 11:00:00 2.6 2 Oeste 7 Noroeste 0.2 -- -- 98
2021-01-05 10:00:00 1.7 3 Noroeste 6 Noroeste 1.2 -- -- 98
2021-01-05 09:00:00 1.9 0 Calma 5 Este 1 -- -- 98
2021-01-05 08:00:00 1.9 0 Calma 5 Nordeste 0.2 -- -- 98
2021-01-05 07:00:00 1.7 0 Calma 4 Oeste 1 -- -- 98
2021-01-05 06:00:00 1.9 2 Sur 9 Oeste 1.2 -- -- 97
2021-01-05 05:00:00 1.6 0 Calma 6 Sur 1.8 -- -- 97
2021-01-05 04:00:00 2.1 4 Sur 12 Sudoeste 1.8 -- -- 96
2021-01-05 03:00:00 2.4 4 Sur 7 Sur 1.4 -- -- 98
2021-01-05 02:00:00 2.5 3 Sudoeste 10 Oeste 3.6 -- -- 99
2021-01-05 01:00:00 2.1 0 Calma 5 Oeste 0 -- -- 99
2021-01-05 00:00:00 1.9 0 Calma 12 Sur 0 -- -- 98
2021-01-04 23:00:00 2.2 2 Sur 9 Sur 1 -- -- 98
2021-01-04 22:00:00 1.9 0 Calma 6 Oeste 0 -- -- 99
2021-01-04 21:00:00 1.6 2 Sur 5 Oeste 0 -- -- 97
2021-01-04 20:00:00 2.2 2 Sur 16 Oeste 1 -- -- 96
2021-01-04 19:00:00 2 0 Calma 4 Sur 0 -- -- 97
2021-01-04 18:00:00 2.4 0 Calma 11 Sudoeste 0.4 -- -- 95
2021-01-04 17:00:00 2.5 5 Noroeste 21 Oeste 1 -- -- 94
2021-01-04 16:00:00 2.3 7 Oeste 23 Noroeste 2.2 -- -- 94
2021-01-04 15:00:00 3.3 4 Oeste 14 Oeste 1.8 -- -- 93
2021-01-04 14:00:00 3.6 4 Noroeste 17 Noroeste 2 -- -- 93
2021-01-04 13:00:00 4.1 5 Sur 10 Sudoeste 0.4 -- -- 92
2021-01-04 12:00:00 3.3 5 Sur 9 Sur 1.6 -- -- 94
2021-01-04 11:00:00 3 5 Sudoeste 16 Noroeste 1.4 -- -- 93
2021-01-04 10:00:00 3.4 4 Sur 16 Noroeste 0.6 -- -- 92
2021-01-04 09:00:00 3.2 5 Sudoeste 23 Oeste 1.6 -- -- 93
2021-01-04 08:00:00 3.6 5 Oeste 14 Oeste 2 -- -- 92
2021-01-04 07:00:00 3.9 5 Noroeste 21 Noroeste 0.2 -- -- 91
2021-01-04 06:00:00 3 4 Oeste 14 Oeste 0.2 -- -- 96
2021-01-04 05:00:00 2.7 8 Este 13 Este 0.8 -- -- 95
2021-01-04 04:00:00 3 2 Sudeste 21 Sur 1.4 -- -- 95
2021-01-04 03:00:00 3.2 9 Sudeste 18 Sur 1.4 -- -- 95
2021-01-04 02:00:00 2.7 3 Este 8 Este 0.2 -- -- 98
2021-01-04 01:00:00 3 4 Este 24 Oeste 0.2 -- -- 97
2021-01-04 00:00:00 2.2 2 Sudeste 13 Este 0 -- -- 98
2021-01-03 23:00:00 2.5 3 Sudeste 9 Sudeste 0.4 -- -- 97
2021-01-03 22:00:00 3 3 Sudeste 7 Este 0 -- -- 97
2021-01-03 21:00:00 3.5 2 Sudeste 17 Sur 1.4 -- -- 97
2021-01-03 20:00:00 3 2 Nordeste 6 Este 0.2 -- -- 98
2021-01-03 19:00:00 3 2 Nordeste 5 Oeste 0.2 -- -- 97
2021-01-03 18:00:00 3.4 3 Sudoeste 5 Sudoeste 1.2 -- -- 96
2021-01-03 17:00:00 3.8 0 Calma 15 Oeste 3.2 -- -- 93
2021-01-03 16:00:00 4.7 5 Noroeste 18 Oeste 2.8 -- -- 88
2021-01-03 15:00:00 5.4 3 Sudeste 19 Sudoeste 1.8 -- -- 91
2021-01-03 14:00:00 5.3 4 Sur 14 Noroeste 1.8 -- -- 90
2021-01-03 13:00:00 5 0 Calma 15 Sur 0.2 -- -- 96
2021-01-03 12:00:00 3.1 3 Este 6 Oeste 1 -- -- 99
2021-01-03 11:00:00 2 0 Calma 5 Oeste 1.2 -- -- 99
2021-01-03 10:00:00 1.4 2 Sudoeste 9 Oeste 1 -- -- 98
2021-01-03 09:00:00 1.1 0 Calma 7 Sur 5.6 -- -- 97
2021-01-03 08:00:00 2 0 Calma 10 Este 5.2 -- -- 97
2021-01-03 07:00:00 3.3 5 Este 9 Este 3.6 -- -- 99
2021-01-03 06:00:00 3.3 2 Sudeste 5 Oeste 0.6 -- -- 99
2021-01-03 05:00:00 3.1 4 Oeste 6 Oeste 0.6 -- -- 99
2021-01-03 04:00:00 3.1 0 Calma 5 Sur 0 -- -- 99
2021-01-03 03:00:00 3.2 0 Calma 5 Sudeste 0.8 -- -- 98
2021-01-03 02:00:00 3.3 0 Calma 5 Sur 0.2 -- -- 98
2021-01-03 01:00:00 3.4 0 Calma 5 Sudeste 0.2 -- -- 98
2021-01-03 00:00:00 3.4 2 Sur 4 Sudeste 0.6 -- -- 98
2021-01-02 23:00:00 3.4 2 Sur 4 Sudoeste 0.8 -- -- 97
2021-01-02 22:00:00 2.8 0 Calma 4 Sudoeste 0 -- -- 95
2021-01-02 21:00:00 3.8 2 Sur 12 Oeste 0 -- -- 90
2021-01-02 20:00:00 3.8 3 Noroeste 8 Oeste 0 -- -- 95
2021-01-02 19:00:00 2.9 3 Oeste 5 Oeste 0 -- -- 97
2021-01-02 18:00:00 2.4 2 Sur 5 Oeste 0 -- -- 95
2021-01-02 17:00:00 4 3 Oeste 24 Oeste 0 -- -- 90
2021-01-02 16:00:00 5.7 9 Noroeste 27 Noroeste 0 -- -- 78
2021-01-02 15:00:00 6.9 5 Noroeste 15 Sudoeste 0 -- -- 74
2021-01-02 14:00:00 6.4 8 Noroeste 20 Noroeste 0 -- -- 81